CST,Max TemperatureF,Mean TemperatureF,Min TemperatureF,Max Dew PointF,MeanDew PointF,Min DewpointF,Max Humidity, Mean Humidity, Min Humidity, Max Sea Level PressureIn, Mean Sea Level PressureIn, Min Sea Level PressureIn, Max VisibilityMiles, Mean VisibilityMiles, Min VisibilityMiles, Max Wind SpeedMPH, Mean Wind SpeedMPH, Max Gust SpeedMPH,PrecipitationIn, CloudCover, Events, WindDirDegrees
2012-11-1,45,36,26,36,26,20,85,65,41,30.07,30.02,29.94,10,10,10,15,5,20,0.00,3,,338
2012-11-2,35,29,23,26,24,20,89,76,65,30.17,30.12,30.07,10,10,10,8,1,,0.00,4,,66
2012-11-3,36,33,30,33,30,26,99,88,71,30.22,30.19,30.15,10,9,1,8,1,,0.03,8,Snow,87
2012-11-4,39,36,33,35,31,29,96,81,76,30.21,30.18,30.14,10,10,4,8,3,,0.00,8,Rain,74
2012-11-5,39,36,32,38,34,31,99,96,93,30.18,30.10,29.89,10,5,1,12,7,18,0.02,8,Rain-Snow,102
2012-11-6,41,38,35,37,35,33,97,89,80,30.01,29.85,29.76,10,8,3,18,11,28,0.09,8,Rain-Snow,289
2012-11-7,45,38,32,37,34,32,97,81,61,30.11,30.05,30.00,10,10,7,13,3,17,0.00,5,,168
2012-11-8,51,42,33,37,34,31,95,79,57,30.03,29.95,29.88,10,10,5,16,10,24,0.00,0,,130
2012-11-9,45,39,33,38,36,32,96,86,75,30.05,29.99,29.89,10,9,5,20,10,26,0.00,5,,56
2012-11-10,50,46,41,50,44,36,100,97,84,29.87,29.60,29.44,10,2,0,18,12,24,0.41,8,Fog-Rain-Thunderstorm,97
2012-11-11,42,30,17,42,21,11,99,83,70,29.91,29.78,29.52,10,10,2,21,16,26,0.00,8,Snow,273
2012-11-12,23,18,14,16,14,11,90,82,74,30.26,30.05,29.89,10,8,2,21,13,28,0.00,4,Snow,266
2012-11-13,41,27,13,29,21,11,91,75,54,30.29,30.25,30.23,10,10,10,9,4,,0.00,2,,160
2012-11-14,47,38,30,32,30,28,90,72,50,30.23,30.19,30.11,10,10,10,9,2,,0.00,2,,184
2012-11-15,42,31,18,32,26,15,97,74,50,30.48,30.27,30.09,10,9,3,14,5,18,0.00,1,,303
2012-11-16,40,28,15,26,16,12,91,61,32,30.48,30.38,30.24,10,10,10,13,4,17,0.00,0,,143
2012-11-17,54,44,35,35,32,26,82,63,47,30.24,30.16,30.11,10,10,10,17,12,25,0.00,0,,156
2012-11-18,55,48,40,35,33,32,72,58,44,30.11,30.05,30.01,10,10,10,14,10,20,0.00,0,,147
2012-11-19,54,44,35,38,35,32,91,69,51,30.11,30.03,29.99,10,10,7,10,7,,0.00,1,,186
2012-11-20,48,34,20,38,30,19,99,79,54,30.19,30.10,29.96,10,6,0,13,3,,0.00,2,Fog,175
2012-11-21,57,45,33,40,35,30,89,64,46,29.96,29.83,29.62,10,10,10,13,5,18,0.00,0,,158
2012-11-22,52,36,20,40,30,16,94,77,62,30.06,29.78,29.57,10,8,0,25,12,37,0.00,5,Snow,274
2012-11-23,22,16,9,16,11,7,89,78,69,30.39,30.30,30.06,10,9,2,24,17,34,0.00,5,Snow,303
2012-11-24,28,16,3,21,12,1,90,78,65,30.35,30.04,29.78,10,10,10,15,4,20,0.00,5,Snow,154
2012-11-25,29,22,14,24,19,5,86,75,59,30.21,29.98,29.81,10,10,10,17,9,24,0.00,8,,305
2012-11-26,20,12,5,8,5,0,79,70,56,30.43,30.33,30.22,10,10,10,16,8,22,0.00,0,,284
2012-11-27,36,25,14,24,17,9,90,74,59,30.28,30.16,30.06,10,10,10,12,6,16,0.00,3,,242
2012-11-28,34,30,25,25,22,19,81,75,68,30.30,30.20,30.04,10,10,10,13,7,16,0.00,4,,201
2012-11-29,34,26,19,26,23,18,95,83,68,30.11,30.07,30.03,10,8,5,15,6,21,0.00,1,,57
2012-11-30,32,28,23,31,27,22,96,91,86,30.17,30.09,29.98,10,5,2,15,8,24,0.00,7,,94